Regional Weather Roundup
Issued by NWS

Home | Current Version | Previous Version | Text Only | Print | Product List | Glossary On
Versions: 1 2 3 4 5 6 7 8 9 10 11 12 13 14 15 16 17 18 19 20 21 22 23 24 25 26 27 28 29 30 31 32 33 34 35 36 37 38 39 40 41 42 43 44 45 46 47 48 49 50
000
ASUS44 KFWD 221615
RWRTX
NORTH TEXAS HOURLY WEATHER ROUNDUP
NATIONAL WEATHER SERVICE FORT WORTH TX
1100 AM CDT SUN APR 22 2018

NOTE: "FAIR" INDICATES FEW OR NO CLOUDS BELOW 12,000 FEET WITH NO
SIGNIFICANT WEATHER AND/OR OBSTRUCTIONS TO VISIBILITY.

TXZ118-119-221700-
DALLAS/FORT WORTH METROPLEX

CITY           SKY/WX    TMP DP  RH WIND       PRES   REMARKS
DFW AIRPORT    FAIR      58  43  57 NW20      30.09R
DALLAS LOVE    FAIR      59  45  59 NW18      30.11R
FTW MEACHAM    FAIR      60  45  57 NW16G29   30.12R
DAL-EXECUTIVE  FAIR      57  43  59 N15       30.10R
FTW-ALLIANCE   PTSUNNY   58  44  60 NW16G24   30.12R
FTW-NAS-JRB    FAIR      60  42  51 NW18G26   30.13R
FTW-SPINKS     MOSUNNY   59  45  58 NW14G22   30.14R
ARLINGTON      FAIR      58  45  62 NW17G25   30.11R
GRAND PRAIRIE  SUNNY     57  43  58 N12G23    30.13R
ADDISON        PTSUNNY   55  43  62 NW16G22   30.11R
MESQUITE       MOSUNNY   57  45  62 NW15G24   30.09S
LANCASTER      FAIR      56  46  68 NW17G23   30.11R
$$

TXZ091>094-102>105-117-120-121-131>134-221700-
NORTH CENTRAL TEXAS

CITY           SKY/WX    TMP DP  RH WIND       PRES   REMARKS
SHRMAN/DENISON CLOUDY    53  45  74 NW12G17   30.09S
GAINESVILLE    PTSUNNY   54  43  65 NW20G26   30.12S
BOWIE          PTSUNNY   54  43  66 NW15G22   30.12S
BRIDGEPORT     PTSUNNY   56  44  64 NW12      30.16S
DECATUR        PTSUNNY   55  43  65 NW7       30.13R
DENTON         FAIR      57  46  66 N15G24    30.11S
MCKINNEY       PTSUNNY   57  47  69 N14       30.09S
BONHAM         CLOUDY    53  43  70 NW13      30.07R
GREENVILLE     CLOUDY    55  46  71 NW12G20   30.07S
ROCKWALL       CLOUDY    55  45  69 MISG      30.09S
TERRELL        FAIR      56  45  66 NW15G23   30.09R
WAXAHACHIE     FAIR      58  46  63 NW15G24   30.12R
CLEBURNE       FAIR      59  45  58 NW18      30.14R
GRANBURY       CLOUDY    59  45  58 NW14G20   30.15S
$$

TXZ083>090-098>101-113>116-127>130-139>142-154-155-221700-
WESTERN NORTH TEXAS

CITY           SKY/WX    TMP DP  RH WIND       PRES   REMARKS
WICHITA FALLS  FAIR      59  43  55 N18       30.14S
WF-KICKAPOO    CLOUDY    55  43  64 NW12G20   30.18S
VERNON         CLOUDY    57  41  55 N18G26    30.18S
ABILENE        PTSUNNY   53  42  66 N14       30.20S
ABILENE-DYESS  CLOUDY    54  39  57 N16       30.20S
GRAHAM           N/A     55  44  65 NW10G18   30.16S
BRECKENRIDGE   CLOUDY    59  40  50 N15       30.19R
CISCO          PTSUNNY   55  41  58 N17G23    30.18S
EASTLAND       PTSUNNY   56  42  60 N13G21    30.18S
RANGER         PTSUNNY   56  42  59 N13G22    30.17S
MINERAL WELLS  PTSUNNY   56  42  59 NW16G24   30.14R
STEPHENVILLE   PTSUNNY   57  42  57 N17G24    30.17S
COMANCHE       PTSUNNY   60  44  56 N15       30.17S
COLEMAN        FAIR      59  41  51 N15G21    30.19S
BRADY          FAIR      57  43  58 N20       30.19S
$$

TXZ143>147-156>162-174-175-221700-
CENTRAL TEXAS

CITY           SKY/WX    TMP DP  RH WIND       PRES   REMARKS
WACO           FAIR      60  46  59 N18       30.13R
WACO-TSTC      MOSUNNY   61  48  63 NW17G24   30.13S
WACO-MCGREGOR  PTSUNNY   60  47  61 NW15G25   30.14R
HILLSBORO      FAIR      59  47  63 NW18      30.11S
CORSICANA      FAIR      60  47  61 NW20      30.10S
MEXIA          PTSUNNY   58  48  69 NW12G21   30.09F
HEARNE         CLOUDY    56  49  74 NW15      30.13R
CAMERON        CLOUDY    58  48  70 N10       30.14R
TEMPLE         CLOUDY    59  47  64 N14       30.14R
KILLEEN        MOSUNNY   57  45  62 NW14G22   30.15R
KILLEEN-SKYLRK PTSUNNY   59  47  64 NW15      30.15R
FORT HOOD      PTSUNNY   58  47  67 NW16      30.11R
GATESVILLE     PTSUNNY   57  46  67 NW10G17   30.17R
HAMILTON       FAIR      60  45  58 N18       30.16S
LAMPASAS       PTSUNNY   57  45  63 N7        30.15S
$$

TXZ095>097-106>112-122>126-135>138-148>153-164>167-221700-
EAST TEXAS

CITY           SKY/WX    TMP DP  RH WIND       PRES   REMARKS
PARIS          CLOUDY    55  46  71 NW15      30.04R
SULPHUR SPRNGS PTSUNNY   56  47  71 W14       30.07S
MOUNT PLEASANT CLOUDY    53  47  82 NW13      30.05R
GILMER         CLOUDY    53  49  86 NW10      30.03S
MINEOLA        PTSUNNY   57  48  72 NW13G25   30.05S
TYLER          CLOUDY    56  48  74 NW14      30.04R
LONGVIEW       CLOUDY    56  53  90 NW12      30.01R
MARSHALL       CLOUDY    55  51  88 NW12      30.03R
ATHENS         PTSUNNY   55  46  71 NW9G18    30.05F
PALESTINE      CLOUDY    57  51  82 W10       30.08S
JACKSONVILLE   CLOUDY    54  51  91 NW8       30.06S
HENDERSON      CLOUDY    54  50  88 NW7       30.05R
CENTER         CLOUDY    56  52  88 NW8       30.02R
NACOGDOCHES      N/A     55  52  89 NW9       30.04R
LUFKIN         CLOUDY    56  51  84 NW9       30.04R
$$

SUPPLEMENTAL OBSERVATIONS (NWS FORT WORTH AREA)

CITY           SKY/WX    TMP DP  RH WIND       PRES   REMARKS
DENISON DAM      N/A     52  43  71 NW25        N/A
CADDO GRASSLND   N/A     55  46  71 NW6G16      N/A
LBJ GRASSLAND    N/A     55  41  58 NW10        N/A
COMANCHE         N/A     61  43  51 NW20        N/A
MCGREGOR         N/A     59  46  63 NW12G21     N/A
LAKE LIMESTONE   N/A     57  48  72 NW12        N/A
ATHENS           N/A     59  48  67 NW5         N/A
$$

SUPPLEMENTAL OBSERVATIONS (NWS NORMAN AREA)

CITY           SKY/WX    TMP DP  RH WIND       PRES   REMARKS
GOODLETT         N/A     55  39  54 NW21G28   30.20S
ODELL            N/A     56  43  61 NW16      30.19S
CROWELL          N/A     59  40  48 N21       30.20S
KNOX CITY      LGT RAIN  60  37  42 NW12G17   30.21S
SEYMOUR          N/A     58  41  51 N16       30.19S
MILLERS CREEK    N/A     61  39  44 NW15G22     N/A
$$

SUPPLEMENTAL OBSERVATIONS (NWS SAN ANGELO AREA)

CITY           SKY/WX    TMP DP  RH WIND       PRES   REMARKS
WEINERT          N/A     58  39  48 N12       30.21S
HASKELL          N/A     57  38  48 NW13G20   30.21S
THROCKMORTON     N/A     57  42  58 NW10G16   30.20S
STAMFORD         N/A     57  41  53 NW14      30.21F
CLYDE            N/A     54  42  64 NW13      30.21R
HAMBY            N/A     57  41  54 N9G17       N/A
IVIE RESERVOIR   N/A     63  43  48 N13         N/A
COLORADO BEND    N/A     61  45  55 NW12        N/A
$$

SUPPLEMENTAL OBSERVATIONS (NWS SHREVEPORT AREA)

CITY           SKY/WX    TMP DP  RH WIND       PRES   REMARKS
TEXARKANA        N/A     57  52  82 NW7G16      N/A
LINDEN           N/A     54  50  87 W7          N/A
CADDO LAKE       N/A     55  52  88 NW5G13      N/A
LUFKIN           N/A     55  50  82 MISG        N/A
N SABINE NF      N/A     57  54  88 MISG        N/A
$$

SUPPLEMENTAL OBSERVATIONS ARE A COLLECTION OF AUTOMATED INSTRUMENTS
THAT ARE MAINTAINED BY A VARIETY OF FEDERAL AND STATE AGENCIES.
CERTAIN ELEMENTS...SUCH AS HUMIDITY VALUES AND SUSTAINED WIND
SPEEDS...MAY BE APPROXIMATED.





USA.gov is the U.S. government's official web portal to all federal, state and local government web resources and services.